Вернуться в каталог

YAM-11

АктивенСвязьSSO
NORAD 68991·PAYLOAD·🇺🇸 United States

Запущен May 3, 2026 с Vandenberg Space Force Base

Loading…

Ближайшие Пролёты (ближайшие 24 часа)

TLE

СвежийSource: Space-Track

Эпоха: Sep 14, 2026, 13:02 UTC

1 68991U 26100M   26257.54354255  .00001105  00000-0  11916-3 0  9995
2 68991  97.7733 153.3619 0001930  87.1158 273.0281 14.90403983 20008

Отслеживайте YAM-11 в реальном времени с AllMySat

Download on the App Store